Location: ?????????
(41.2286°N, 23.0068°E)
Time: 02:26:24
(UTC+00:00)

Cosmos 1943 Rocket - Visible Passes

Search period start: 15 February 2026 00:00
Search period end: 25 February 2026 00:00
Orbit: 811 x 842 km, 71.0° (Epoch: 13 February)

Date Brightness Start Highest point End Pass type
(mag) Time Alt. Az. Time Alt. Az. Time Alt. Az.
18 Feb 4.7 04:51:39 10° NNE 04:54:37 14° NE 04:57:35 10° E visible
19 Feb 4.8 04:32:25 10° NNE 04:34:51 13° NE 04:37:16 10° ENE visible
20 Feb 4.9 04:13:24 10° NNE 04:15:04 11° NE 04:16:44 10° ENE visible
24 Feb 3.7 04:36:04 10° N 04:41:17 38° ENE 04:46:29 10° SE visible
